User: anonymous   Login
Location: Ermatingen
(47.6706°N, 9.0857°E)
Time: 15:31:35
(UTC+00:00)
Language:

COSMOS 2406 - Orbit

View from above orbital plane
View from above orbital plane
View from above satellite
View from above satellite

Ground track
Ground track

The orbit data is extracted from the following two-line orbital elements,

1 28352U 04021A   20339.51534560  .00000029  00000-0  42070-4 0  9991
2 28352  71.0008   0.4204 0015355 343.1477  16.9132 14.11670862849511
Epoch (UTC): 04 December 2020 12:22:05
Eccentricity: 0.0015355
inclination: 71.0008°
perigee height: 842 km
apogee height: 865 km
right ascension of ascending node: 0.4204°
argument of perigee: 343.1477°
revolutions per day: 14.11670862
mean anomaly at epoch: 16.9132°
orbit number at epoch: 84951

The dashed part of the orbit path shows where the satellite is in the earth's shadow,  

DLR